Regional Weather Roundup
Issued by NWS Cleveland, OH

Home | Current Version | Previous Version | Text Only | Print | Product List | Glossary Off
Versions: 1 2 3 4 5 6 7 8 9 10 11 12 13 14 15 16 17 18 19 20 21 22 23 24 25 26 27 28 29 30 31 32 33 34 35 36 37 38 39 40 41 42 43 44 45 46 47 48 49 50

000
ASUS41 KCLE 270510
RWRCLE
OHIO REGIONAL WEATHER ROUNDUP
NATIONAL WEATHER SERVICE CLEVELAND, OH
1200 AM EST SAT DEC 27 2014

NOTE: "FAIR" INDICATES FEW OR NO CLOUDS BELOW 12,000 FEET WITH NO
SIGNIFICANT WEATHER AND/OR OBSTRUCTIONS TO VISIBILITY.

OHZ001>008-015>018-024>027-034-035-043-044-270600-
   NORTHWEST OHIO

CITY           SKY/WX    TMP DP  RH WIND       PRES   REMARKS
DEFIANCE       CLOUDY    45  38  76 S12       30.14R
FINDLAY        CLOUDY    43  36  76 S12       30.14S
TOLEDO EXPRESS CLOUDY    41  36  82 S8        30.13R
TOLEDO EXEC    MOCLDY    42  35  76 S10       30.15R
LIMA           CLOUDY    45  35  68 S10       30.15R
$$

OHZ009>014-019>023-028>033-038-089-270600-
   NORTHEAST OHIO

CITY           SKY/WX    TMP DP  RH WIND       PRES   REMARKS
CLE-HOPKINS    MOCLDY    43  33  68 S10       30.18S
CLE-LAKEFRONT  MOCLDY    46  34  62 S14       30.15S
CUY CO. ARPT   NOT AVBL
LORAIN-ELYRIA  MOCLDY    40  34  79 S9        30.16S
ASHTABULA      CLOUDY    41  33  73 S8        30.16S
AKRON-CANTON   MOCLDY    40  32  73 SW7       30.17F
WOOSTER        MOCLDY    39  33  79 SW9       30.18S
MANSFIELD      CLOUDY    39  34  82 S10       30.17R
YOUNGSTOWN     MOCLDY    40  32  73 S8        30.17S
$$

OHZ042-051>053-060>062-070>072-077>081-270600-
  SOUTHWEST OHIO

CITY           SKY/WX    TMP DP  RH WIND       PRES   REMARKS
CINC-COVINGTON MOCLDY    42  31  64 S7        30.17F
CINC-LUNKEN    PTCLDY    35  35 100 CALM      30.20R
HAMILTON       MOCLDY    38  33  82 E3        30.19R
DAYTON         MOCLDY    45  34  65 S8        30.18R
WRIGHT-PAT AFB CLOUDY    43  35  74 S5        30.18R
DAYTON GENERAL MOCLDY    43  34  70 S7        30.17R
WILMINGTON     CLOUDY    41  33  73 S5        30.18S
$$

OHZ036-037-039>041-045>050-054>059-063>069-073>076-082>088-270600-
  CENTRAL AND SOUTHEAST OHIO

CITY           SKY/WX    TMP DP  RH WIND       PRES   REMARKS
COLUMBUS       PTCLDY    40  33  76 S3        30.20R
OSU AIRPORT    MOCLDY    36  32  85 E3        30.19R
BOLTON FIELD   PTCLDY    38  33  83 MISG      30.20R
RICKENBACK AFB PTCLDY    40  33  76 S5        30.19R
NEWARK         PTCLDY    33  30  88 CALM      30.20R
MARION         CLOUDY    40  34  79 S9        30.18R
LANCASTER      PTCLDY    35  32  88 CALM      30.20S
ZANESVILLE     PTCLDY    36  30  79 CALM      30.20S
NEW PHILLY     PTCLDY    37  31  78 E3        30.20S
$$


USA.gov is the U.S. government's official web portal to all federal, state and local government web resources and services.